Weather History for Monett, MO

Change the Weather History Date:

Tuesday, May 21, 2013

  Actual Average (KJLN) Record (KJLN)
Temperature  
Mean Temperature 62 °F 68 °F  
Max Temperature 66 °F 79 °F 91 °F (1987)
Min Temperature 57 °F 58 °F 40 °F (1968)
Degree Days  
Heating Degree Days 4 1  
Month to date heating degree days 56  
Since 1 July heating degree days 4059  
Cooling Degree Days 0 5  
Month to date cooling degree days 69  
Year to date cooling degree days 123  
Growing Degree Days 12 (Base 50)    
Moisture  
Dew Point 58 °F    
Average Humidity 89    
Maximum Humidity 94    
Minimum Humidity 73    
Precipitation  
Precipitation 0.06 in 0.19 in 1.25 in (1951)
Month to date precipitation 3.96  
Year to date precipitation 16.20  
Sea Level Pressure  
Sea Level Pressure 29.80 in    
Wind  
Wind Speed 9 mph (SW)    
Max Wind Speed 22 mph    
Max Gust Speed 30 mph    
Visibility 10 miles    
Events Rain , Thunderstorm    
T = Trace of Precipitation, MM = Missing Value Source: NWS Daily Summary

Daily Weather History Graph

Daily Weather History Graph

Search for Another Location

Airport:

Trip Planner

Search our weather history database for the weather conditions in past years. The results will help you decide how hot, cold, wet, or windy it might be!

Date:

Astronomy

May. 21, 2013 Rise Set
Actual Time 6:03 AM CDT 8:22 PM CDT
Civil Twilight 5:34 AM CDT 8:51 PM CDT
Nautical Twilight 4:58 AM CDT 9:27 PM CDT
Astronomical Twilight 4:18 AM CDT 10:07 PM CDT
Moon 4:41 PM CDT (5/21) 3:26 AM CDT (5/21)
Length of Visible Light 15h 17m
Length of Day
14h 18m
Waxing Gibbous, 84% of the Moon is Illuminated
May 21
Waxing Gibbous
May 24
Full
May 31
Last Quarter
Jun 8
New
Jun 16
First Quarter

Hourly Weather History & Observations

Time (CDT) Temp. Dew Point Humidity Pressure Visibility Wind Dir Wind Speed Gust Speed Precip Events Conditions
12:15 AM 64.4 °F 60.8 °F 88% 29.79 in 10.0 mi South 11.5 mph - N/A   Scattered Clouds
12:35 AM 64.4 °F 59.0 °F 83% 29.79 in 10.0 mi South 8.1 mph - N/A Rain Rain
12:55 AM 66.2 °F 59.0 °F 78% 29.81 in 10.0 mi SW 10.4 mph - N/A   Scattered Clouds
1:15 AM 64.4 °F 57.2 °F 77% 29.79 in 10.0 mi SSW 15.0 mph - N/A   Light Drizzle
1:35 AM 66.2 °F 57.2 °F 73% 29.77 in 10.0 mi SSW 10.4 mph - N/A   Scattered Clouds
1:55 AM 64.4 °F 57.2 °F 77% 29.77 in 10.0 mi West 4.6 mph - N/A   Clear
2:15 AM 62.6 °F 57.2 °F 82% 29.77 in 10.0 mi SSW 6.9 mph - N/A   Clear
2:35 AM 62.6 °F 57.2 °F 82% 29.76 in 10.0 mi SSW 6.9 mph - N/A   Clear
2:55 AM 62.6 °F 57.2 °F 82% 29.76 in 10.0 mi South 6.9 mph - N/A   Clear
3:15 AM 60.8 °F 57.2 °F 88% 29.75 in 10.0 mi SSE 6.9 mph - N/A   Clear
3:35 AM 60.8 °F 57.2 °F 88% 29.78 in 10.0 mi SSW 5.8 mph - N/A   Clear
3:55 AM 62.6 °F 57.2 °F 82% 29.80 in 10.0 mi WSW 4.6 mph - N/A   Clear
4:15 AM 60.8 °F 57.2 °F 88% 29.81 in 10.0 mi SSW 5.8 mph - N/A   Clear
4:35 AM 60.8 °F 57.2 °F 88% 29.79 in 10.0 mi South 4.6 mph - N/A   Mostly Cloudy
4:55 AM 60.8 °F 59.0 °F 94% 29.79 in 10.0 mi South 4.6 mph - N/A   Mostly Cloudy
5:15 AM 60.8 °F 57.2 °F 88% 29.80 in 10.0 mi South 6.9 mph - N/A Thunderstorm Scattered Clouds
5:35 AM 60.8 °F 57.2 °F 88% 29.80 in 10.0 mi South 4.6 mph - N/A   Scattered Clouds
5:55 AM 60.8 °F 57.2 °F 88% 29.81 in 10.0 mi South 6.9 mph - N/A   Scattered Clouds
6:15 AM 60.8 °F 59.0 °F 94% 29.80 in 10.0 mi South 5.8 mph - N/A   Mostly Cloudy
6:35 AM 60.8 °F 59.0 °F 94% 29.82 in 10.0 mi WNW 5.8 mph - N/A   Mostly Cloudy
6:55 AM 60.8 °F 59.0 °F 94% 29.81 in 10.0 mi WNW 3.5 mph - N/A   Scattered Clouds
7:15 AM 60.8 °F 59.0 °F 94% 29.83 in 10.0 mi West 3.5 mph - N/A   Clear
7:35 AM 60.8 °F 59.0 °F 94% 29.82 in 10.0 mi SSE 4.6 mph - N/A   Clear
7:55 AM 60.8 °F 59.0 °F 94% 29.84 in 10.0 mi South 6.9 mph - N/A   Scattered Clouds
8:15 AM 60.8 °F 59.0 °F 94% 29.84 in 10.0 mi South 3.5 mph - N/A   Mostly Cloudy
8:35 AM 62.6 °F 59.0 °F 88% 29.84 in 10.0 mi SSW 3.5 mph - N/A   Scattered Clouds
8:55 AM 62.6 °F 59.0 °F 88% 29.83 in 10.0 mi SW 3.5 mph - N/A   Clear
9:15 AM 62.6 °F 60.8 °F 94% 29.84 in 10.0 mi WSW 3.5 mph - N/A   Clear
9:35 AM 62.6 °F 60.8 °F 94% 29.83 in 10.0 mi SW 5.8 mph - N/A   Clear
9:55 AM 62.6 °F 60.8 °F 94% 29.84 in 10.0 mi South 5.8 mph - N/A   Clear
10:15 AM 62.6 °F 60.8 °F 94% 29.87 in 10.0 mi SSW 8.1 mph - N/A   Scattered Clouds
10:35 AM 62.6 °F 59.0 °F 88% 29.73 in 10.0 mi ESE 21.9 mph 27.6 mph N/A Rain Light Rain
10:55 AM 62.6 °F 59.0 °F 88% 29.82 in 10.0 mi West 13.8 mph 20.7 mph N/A Thunderstorm Mostly Cloudy
11:15 AM 62.6 °F 59.0 °F 88% 29.84 in 10.0 mi WSW 4.6 mph 16.1 mph N/A   Overcast
11:35 AM 62.6 °F 59.0 °F 88% 29.85 in 10.0 mi West 9.2 mph - N/A Rain Light Rain
11:55 AM 62.6 °F 59.0 °F 88% 29.81 in 10.0 mi East 6.9 mph - N/A Rain Rain
12:15 PM 62.6 °F 59.0 °F 88% 29.86 in 10.0 mi SW 17.3 mph - N/A   Light Drizzle
12:35 PM 60.8 °F 59.0 °F 94% 29.87 in 10.0 mi SSW 12.7 mph - N/A Rain Light Rain
12:55 PM 60.8 °F 59.0 °F 94% 29.88 in 10.0 mi SSW 12.7 mph 17.3 mph N/A   Mostly Cloudy
1:15 PM 60.8 °F 59.0 °F 94% 29.87 in 10.0 mi SSW 15.0 mph 19.6 mph N/A   Mostly Cloudy
1:35 PM 60.8 °F 59.0 °F 94% 29.84 in 10.0 mi South 11.5 mph 16.1 mph N/A   Light Drizzle
1:55 PM 60.8 °F 59.0 °F 94% 29.82 in 10.0 mi South 10.4 mph - N/A   Overcast
2:15 PM 60.8 °F 59.0 °F 94% 29.72 in 10.0 mi East 11.5 mph 17.3 mph N/A   Overcast
2:35 PM 62.6 °F 59.0 °F 88% 29.74 in 10.0 mi South 5.8 mph 17.3 mph N/A   Scattered Clouds
2:55 PM 64.4 °F 59.0 °F 83% 29.81 in 10.0 mi West 11.5 mph - N/A   Scattered Clouds
3:15 PM 64.4 °F 59.0 °F 83% 29.83 in 10.0 mi WSW 10.4 mph - N/A   Mostly Cloudy
3:35 PM 64.4 °F 59.0 °F 83% 29.83 in 10.0 mi West 9.2 mph 18.4 mph N/A   Mostly Cloudy
3:55 PM 64.4 °F 59.0 °F 83% 29.83 in 10.0 mi WSW 11.5 mph - N/A   Mostly Cloudy
4:15 PM 62.6 °F 59.0 °F 88% 29.84 in 10.0 mi West 17.3 mph 25.3 mph N/A   Overcast
4:35 PM 62.6 °F 59.0 °F 88% 29.85 in 10.0 mi WSW 15.0 mph 24.2 mph N/A Rain Rain
4:55 PM 60.8 °F 59.0 °F 94% 29.86 in 7.0 mi SW 11.5 mph 19.6 mph 0.03 in Rain Light Rain
5:15 PM 60.8 °F 57.2 °F 88% 29.85 in 10.0 mi SSW 13.8 mph 17.3 mph N/A Rain Light Rain
5:35 PM 59.0 °F 57.2 °F 94% 29.82 in 10.0 mi SSW 12.7 mph 18.4 mph 0.01 in Rain Light Rain
5:55 PM 59.0 °F 55.4 °F 88% 29.79 in 10.0 mi South 15.0 mph - 0.02 in Rain Light Rain
6:15 PM 59.0 °F 57.2 °F 94% 29.78 in 10.0 mi South 19.6 mph - 0.01 in Rain Light Rain
6:35 PM 59.0 °F 57.2 °F 94% 29.70 in 10.0 mi SE 16.1 mph - 0.01 in Rain Light Rain
6:55 PM 59.0 °F 55.4 °F 88% 29.63 in 10.0 mi ESE 19.6 mph 25.3 mph 0.01 in   Mostly Cloudy
7:15 PM 59.0 °F 55.4 °F 88% 29.64 in 10.0 mi SSE 10.4 mph 29.9 mph N/A   Scattered Clouds
7:35 PM 60.8 °F 55.4 °F 82% 29.69 in 10.0 mi West 15.0 mph 24.2 mph N/A   Scattered Clouds
7:55 PM 59.0 °F 55.4 °F 88% 29.72 in 10.0 mi West 8.1 mph - N/A   Scattered Clouds
8:15 PM 59.0 °F 55.4 °F 88% 29.73 in 10.0 mi West 6.9 mph - N/A   Clear
8:35 PM 59.0 °F 55.4 °F 88% 29.73 in 10.0 mi West 5.8 mph - N/A   Clear
8:55 PM 59.0 °F 55.4 °F 88% 29.75 in 10.0 mi West 6.9 mph - N/A   Clear
9:15 PM 59.0 °F 55.4 °F 88% 29.77 in 10.0 mi WSW 5.8 mph - N/A   Scattered Clouds
9:35 PM 57.2 °F 55.4 °F 94% 29.79 in 10.0 mi SW 4.6 mph - N/A   Scattered Clouds
9:55 PM 57.2 °F 55.4 °F 94% 29.80 in 10.0 mi SW 5.8 mph - N/A   Overcast
10:15 PM 59.0 °F 55.4 °F 88% 29.80 in 10.0 mi SW 5.8 mph - N/A   Overcast
10:35 PM 59.0 °F 55.4 °F 88% 29.80 in 10.0 mi SW 5.8 mph - N/A   Overcast
10:55 PM 59.0 °F 55.4 °F 88% 29.81 in 10.0 mi SW 8.1 mph - N/A   Overcast
11:15 PM 57.2 °F 55.4 °F 94% 29.81 in 10.0 mi SW 9.2 mph - N/A   Overcast
11:35 PM 57.2 °F 55.4 °F 94% 29.81 in 10.0 mi SW 8.1 mph - N/A   Overcast
11:55 PM 57.2 °F 55.4 °F 94% 29.81 in 10.0 mi SW 10.4 mph - N/A Rain Light Rain